Weather past 2 weeks in Bantam, Cocos Islands

Now
81 °F

Warm.


Feels Like: 85 °F
Forecast: 77 / 85 °F
Wind: 9 mph from Southeast

Location: Cocos Island Airport

Current Time: Apr 26, 2015 at 1:49:40 AM

Latest Report: Apr 26, 2015 at 1:00 AM


Visibility: N/A

Pressure: 29.83 "Hg

Humidity: 79%

Dew point: 73 °F

Location of BantamLocation

Historic Weather in Bantam — Graph

°F

Bantam temperature yesterday

Maximum temperature yesterday: 84 °F (at 10:30 AM)
Minimum temperature yesterday: 75 °F (at 1:30 AM)
Average temperature yesterday: 80 °F

Past Weeks' High & Low Weather Summary

 TemperatureHumidityPressure
High88 °F (Apr 14, 10:00 AM)100% (Apr 11, 7:30 PM)29.89 "Hg (Apr 11, 7:30 PM)
Low75 °F (Apr 23, 5:00 AM)62% (Apr 13, 7:30 PM)29.65 "Hg (Apr 14, 2:30 PM)
Average82 °F81%29.79 "Hg
* Reported Apr 11 12:30 AM — Apr 26 12:30 AM, Bantam, Weather by CustomWeather, © 2015

Note: Actual official high and low records may vary slightly from our data, if they occured in-between our weather recording intervals... More about our weather records

Advertising

Bantam weather history for previous 24 hours

 ConditionsComfort  
Time TempWeatherWind HumidityBarometerVisibility
12:30 AM
Sun, Apr 26
81 °FWarm.10 mph84%29.83 "HgN/A
12:00 AM81 °FWarm.12 mph84%29.83 "HgN/A
11:30 PM
Sat, Apr 25
81 °FWarm.8 mph79%29.83 "HgN/A
11:00 PM81 °FWarm.8 mph79%29.83 "HgN/A
10:30 PM81 °FWarm.8 mph79%29.83 "HgN/A
10:00 PM81 °FWarm.8 mph79%29.83 "HgN/A
9:30 PM81 °FWarm.6 mph84%29.86 "HgN/A
9:00 PM81 °FWarm.8 mph79%29.83 "HgN/A
8:30 PM81 °FWarm.8 mph79%29.83 "HgN/A
8:00 PM81 °FWarm.8 mph79%29.83 "HgN/A
7:30 PM81 °FWarm.6 mph79%29.83 "HgN/A
7:00 PM79 °FPartly cloudy.5 mph89%29.83 "HgN/A
6:30 PM79 °FSprinkles. Mostly cloudy.12 mph84%29.80 "Hg4 mi
6:00 PM79 °FSprinkles. Cloudy.13 mph84%29.80 "HgN/A
5:30 PM81 °FBroken clouds.8 mph84%29.80 "HgN/A
5:00 PM82 °FLight rain. Broken clouds.9 mph79%29.77 "HgN/A
4:30 PM84 °FScattered clouds.9 mph70%29.77 "HgN/A
4:00 PM84 °FSunny.10 mph70%29.77 "HgN/A
3:30 PM84 °FPassing clouds.10 mph70%29.77 "HgN/A
3:00 PM84 °FScattered clouds.10 mph70%29.77 "HgN/A
2:30 PM84 °FPartly sunny.9 mph70%29.77 "HgN/A
2:00 PM84 °FSunny.10 mph66%29.77 "Hg10 mi
1:30 PM82 °FSunny.10 mph74%29.77 "Hg10 mi
1:00 PM81 °FPartly sunny.12 mph84%29.80 "HgN/A
12:30 PM81 °FScattered showers. Partly sunny.15 mph79%29.80 "HgN/A
12:00 PM79 °FSprinkles. Partly sunny.15 mph89%29.83 "HgN/A
11:30 AM77 °FLots of rain. Broken clouds.17 mph94%29.83 "Hg2 mi
11:00 AM82 °FScattered showers. Scattered clouds.10 mph70%29.83 "HgN/A
10:30 AM84 °FScattered showers. Scattered clouds.9 mph74%29.83 "HgN/A
10:00 AM81 °FScattered showers. Partly sunny.9 mph79%29.86 "HgN/A
9:30 AM81 °FScattered showers. Partly sunny.8 mph79%29.86 "HgN/A
9:00 AM79 °FScattered showers. Partly sunny.10 mph84%29.86 "HgN/A
8:30 AM79 °FScattered showers. Partly sunny.13 mph84%29.83 "HgN/A
7:30 AM77 °FRain showers. Partly sunny.17 mph89%29.83 "Hg3 mi
7:00 AM77 °FRain showers. Partly cloudy.12 mph89%29.83 "Hg4 mi
6:00 AM77 °FLight rain. Passing clouds.13 mph89%29.80 "HgN/A
5:30 AM77 °FLight rain. Partly cloudy.14 mph89%29.80 "HgN/A
5:00 AM77 °FLight rain. Overcast.10 mph94%29.80 "Hg5 mi
4:30 AM75 °FRain. Overcast.7 mph100%29.80 "Hg2 mi
4:00 AM75 °FHeavy rain. Mostly cloudy.8 mph94%29.80 "Hg1 mi
3:30 AM75 °FHeavy rain. Overcast.13 mph94%29.80 "Hg1 mi
3:00 AM75 °FHeavy rain. Overcast.18 mph94%29.80 "Hg1 mi
2:30 AM75 °FHeavy rain. Overcast.18 mph100%29.80 "Hg1 mi
2:00 AM77 °FRain. Overcast.13 mph94%29.80 "Hg3 mi
1:30 AM75 °FRain. Overcast.13 mph94%29.83 "Hg3 mi
1:00 AM77 °FOvercast.8 mph94%29.83 "HgN/A
Weather by CustomWeather, © 2015

See weather overviewHow to use our weather pages